User: anonymous   Login
Location: Plum
(40.5000°N, 79.7500°W)
Time: 04:57:32
(UTC-04:00)
Language:

Cosmos 1825 - Orbit

View from above orbital plane
View from above orbital plane
View from above satellite
View from above satellite

Ground track
Ground track

The orbit data is extracted from the following two-line orbital elements,

1 17566U 87024A   18111.94592244 +.00000772 +00000-0 +35155-4 0  9996
2 17566 082.5055 343.9385 0003030 196.1958 163.9180 15.19207742700421
Epoch (UTC): 21 April 2018 22:42:07
Eccentricity: 0.0003030
inclination: 82.5055°
perigee height: 506 km
apogee height: 510 km
right ascension of ascending node: 343.9385°
argument of perigee: 196.1958°
revolutions per day: 15.19207742
mean anomaly at epoch: 163.9180°
orbit number at epoch: 70042

The dashed part of the orbit path shows where the satellite is in the earth's shadow,  

DLR